EST,Max TemperatureF,Mean TemperatureF,Min TemperatureF,Max Dew PointF,MeanDew PointF,Min DewpointF,Max Humidity, Mean Humidity, Min Humidity, Max Sea Level PressureIn, Mean Sea Level PressureIn, Min Sea Level PressureIn, Max VisibilityMiles, Mean VisibilityMiles, Min VisibilityMiles, Max Wind SpeedMPH, Mean Wind SpeedMPH, Max Gust SpeedMPH,PrecipitationIn, CloudCover, Events, WindDirDegrees
2012-11-1,59,49,39,55,37,30,100,82,62,29.74,29.65,29.55,9,9,7,18,13,28,0.16,8,Rain,303
2012-11-2,55,46,37,50,31,27,96,71,57,30.04,29.83,29.47,9,9,9,24,15,33,0.00,8,,319
2012-11-3,51,43,35,43,33,30,94,81,60,30.19,30.13,29.52,9,9,5,20,15,26,0.00,8,Rain,336
2012-11-4,43,38,33,41,32,30,100,82,70,30.19,30.16,29.54,9,9,5,16,11,23,0.03,8,Rain-Snow,327
2012-11-5,36,32,29,34,31,18,100,91,34,30.24,30.18,29.83,9,7,2,12,6,17,0.01,8,Rain-Snow,146
2012-11-6,35,28,22,28,26,10,93,75,25,30.20,30.09,29.97,9,9,9,12,6,,0.00,5,,114
2012-11-7,37,28,18,32,27,15,87,79,52,30.33,30.10,30.04,9,9,7,17,7,23,0.00,4,,83
2012-11-8,37,34,32,35,30,27,96,82,66,30.22,30.17,29.90,9,9,9,12,4,,0.24,5,,197
2012-11-9,46,39,32,39,34,29,100,92,71,30.20,30.15,29.68,9,5,3,10,6,,0.20,4,,207
2012-11-10,53,40,28,46,42,13,100,81,27,30.27,30.12,29.78,9,5,2,18,8,24,0.00,8,Rain,147
2012-11-11,59,42,24,48,41,18,77,61,43,30.52,30.12,29.99,9,9,9,23,13,33,0.00,4,Rain,187
2012-11-12,55,42,29,54,43,23,100,83,45,30.47,29.99,29.89,9,8,2,28,14,39,0.00,8,Rain,243
2012-11-13,62,47,32,53,23,16,90,65,44,30.58,30.36,30.04,9,9,9,15,9,22,0.16,7,Rain-Snow,274
2012-11-14,38,31,24,28,25,21,94,75,47,30.62,30.56,30.41,9,9,9,6,3,,0.02,3,,154
2012-11-15,39,30,22,32,29,25,95,80,61,30.59,30.41,30.36,9,8,5,8,3,,0.00,3,,102
2012-11-16,44,35,26,37,31,25,100,94,49,30.53,30.47,30.25,6,3,0,9,3,,0.00,2,Fog,191
2012-11-17,39,31,23,43,31,15,100,96,31,30.65,30.60,30.36,7,1,0,9,3,,0.00,2,Fog,164
2012-11-18,37,26,15,43,33,14,100,95,35,30.76,30.56,30.46,9,2,0,12,6,,0.02,2,Fog,145
2012-11-19,46,32,17,41,34,18,100,82,26,30.63,30.37,30.22,9,6,2,9,7,,0.00,3,,161
2012-11-20,50,36,21,45,39,19,100,88,34,30.28,30.17,30.09,9,4,0,9,5,,0.01,6,Fog,169
2012-11-21,46,36,27,48,38,29,100,94,43,30.37,30.21,30.17,9,2,0,12,4,,0.00,2,Fog,170
2012-11-22,54,40,27,46,40,25,100,81,22,30.22,30.06,29.83,9,5,0,24,10,32,0.00,2,Fog-Rain,193
2012-11-23,51,41,31,48,28,21,100,71,48,29.96,29.84,29.67,9,9,3,28,16,36,0.00,8,Rain-Snow,270
2012-11-24,46,38,30,40,23,18,96,69,60,30.08,30.01,29.26,9,9,9,23,16,33,0.04,8,Rain-Snow,294
2012-11-25,33,30,26,32,25,15,100,78,43,30.03,29.90,29.14,9,8,0,14,9,18,0.00,8,Snow,245
2012-11-26,30,27,24,25,21,11,80,66,31,30.29,30.15,29.42,9,9,9,12,8,,0.00,8,,282
2012-11-27,35,24,12,23,20,3,86,76,21,30.37,30.30,30.10,9,9,9,10,7,,0.00,2,,261
2012-11-28,32,18,3,25,21,1,93,68,36,30.35,30.26,30.17,9,9,9,21,8,29,0.00,3,,253
2012-11-29,37,24,10,30,25,4,93,76,42,30.30,30.25,29.93,9,8,2,14,7,18,0.00,4,,207
2012-11-30,32,20,7,34,30,-4,93,88,32,30.44,30.26,30.02,9,7,3,17,8,22,0.00,7,Rain-Snow,117